FENGYUN 1C DEB, 33711

Orbit data source: Space-Track

FENGYUN 1C DEB, 33711 is space debris in SSO originally from a launch on Mon, 10 May 1999 UTC launched from the Taiyaun Space Center, China (TSC). Fengyun 1C debris stems from the Chinese weather satellite Fengyun-1C, which was intentionally destroyed by a Chinese anti-satellite missile in 2007. This event dramatically increased the amount of space debris, with thousands of trackable fragments posing hazards to satellites and human spaceflight. The Fengyun 1C debris cloud has become a focal point in discussions about space sustainability and the need for international regulations to prevent the creation of new debris.

Loading next visibility...
Identifier
33711, 1999-025DGY
Orbit
SSO
Country
Flag of CNCN / PRC
Related business
Manufacturer
Unknown
Mission
Spacecraft
Bus & Motor
Unknown
Mass
Unknown
Launch date (UTC)
1999-05-10 (27 years ago)
Launch vehicle
Unknown
Launch site
Taiyaun Space Center, China (TSC)
Object type
Payload
Rocket body
Debris
Shape & HBR
Unknown shape, 0.1 m
Radar Cross Section
Small (<0.1 m²)

Expand to show TLE details & history
Last TLE update: 17 hours ago

TLE from 17 hours ago
0 FENGYUN 1C DEB
1 33711U 99025DGY 26100.09092745  .00001319  00000-0  87008-3 0  9995
2 33711  99.1699 159.1076 0097988  81.7788 308.8134 14.01206234935893
Epoch: 2026-04-10T02:10Z
TLE epoch observation values (Epoch: 2026-04-10T02:10:56.131Z)
Latitude
29.34292°
Longitude
-77.13483°
Altitude
849.014 km
Speed
7.453 km/s
True Right ascension
10h 15m 42s
True Declination
29° 11' 53"
Sunlit
Object was in full shadow at epoch
Visualization orbit readout
Latitude
Unknown
Longitude
Unknown
Altitude
Unknown
Speed
Unknown
Apparent Right ascension
Unknown
Apparent Declination
Unknown
Sunlit
N/A
Visualization observer readout
Local Sidereal Time
01:54:34
Azimuth
Unknown
Elevation
Unknown
Doppler factor
Unknown
Orbital elements
Apogee altitude
958.015 km
Perigee altitude
815.639 km
Semi-major axis
7,264.964 km
Eccentricity
0.0098
Inclination
99.1699°
RAAN
159.1076°
Arg. of periapsis
81.7788°
True anomaly
307.93175°
Mean anomaly
308.8134°
Eccentric anomaly
308.37325°
Mean motion
3.50504 °/min
Orbital period
102.71 mins
BSTAR
0.00087008
Loading maneuver chart data...
Computing Atmospheric mass density...

Documentation

Showing up to 5 results
|